Location: Armidale
(30.5016°S, 151.6662°E)
Time: 06:08:29
(UTC+10:00)

N. Korean satellite - Visible Passes

Search period start: 22 August 2019 00:00
Search period end: 01 September 2019 00:00
Orbit: 457 x 507 km, 97.2° (Epoch: 21 August)

Date Brightness Start Highest point End Pass type
(mag) Time Alt. Az. Time Alt. Az. Time Alt. Az.
22 Aug 7.0 05:36:49 10° NNW 05:40:02 36° W 05:43:17 10° SSW visible
22 Aug 9.7 18:42:52 10° SW 18:44:56 15° WSW 18:47:01 10° WNW visible
23 Aug 6.4 05:11:25 10° NNE 05:14:52 85° ESE 05:18:22 10° S visible
23 Aug 8.6 18:16:41 10° S 18:19:57 31° WSW 18:23:12 10° NW visible
24 Aug 8.3 04:46:39 10° NE 04:49:47 33° ESE 04:52:56 10° S visible
24 Aug 6.8 17:51:14 10° S 17:54:52 77° WSW 17:58:31 10° NNW visible
25 Aug 9.6 04:22:45 10° ENE 04:24:47 15° ESE 04:26:49 10° SE visible
26 Aug 6.7 05:29:24 10° N 05:32:44 47° W 05:36:07 10° SSW visible
26 Aug 9.6 18:35:09 10° SSW 18:37:44 18° WSW 18:40:18 10° WNW visible
27 Aug 6.9 05:04:11 10° NNE 05:07:35 65° ESE 05:11:03 10° S visible
27 Aug 8.2 18:09:16 10° S 18:12:43 40° WSW 18:16:10 10° NW visible
28 Aug 8.7 04:39:36 10° NE 04:42:31 26° ESE 04:45:28 10° SSE visible
29 Aug 9.8 04:16:09 10° E 04:17:33 12° ESE 04:18:55 10° SE visible
29 Aug 10.1 18:54:36 10° SW 18:55:28 11° WSW 18:56:20 10° W visible
30 Aug 6.4 05:22:02 10° N 05:25:26 63° W 05:28:53 10° SSW visible
30 Aug 9.3 18:27:34 10° SSW 18:30:30 23° WSW 18:33:26 10° NW visible
31 Aug 7.4 04:56:58 10° NNE 05:00:17 49° ESE 05:03:41 10° S visible
31 Aug 7.7 18:01:52 10° S 18:05:28 51° WSW 18:09:03 10° NNW visible
